ハートレー-アイラス彗星

161P/Hartley-IRAS (2005)

English version
Home page
Updated on January 7, 2006

---------------------------------------------------------------------

・ プロフィール

符号 161P/2004 V2
検出日 2004年11月3日
検出光度 19.5等
検出者 R. H. McNaught (Siding Spring Observatory)

・ 写真集

・ 軌道要素

Epoch 2005 July 9.0 TT = JDT 2453560.5
T 2005 June 20.84460 TT                                 MPC
q   1.2751385            (2000.0)            P               Q
n   0.04584271     Peri.   47.07586     +0.68260156     -0.73038652
a   7.7319533      Node     1.39952     -0.34124491     -0.34797423
e   0.8350820      Incl.   95.69685     +0.64622521     +0.58774950
P  21.50
>From 56 observations 1983 Nov. 23-2004 Nov. 17, mean residual 0".92.

・ 星図

・ 光度変化

        m1 = 7.9 + 5 logΔ + 19.5 log r(t - 20)  [  ,20]  (              〜2005年 7月10日)
        m1 = 6.3 + 5 logΔ + 35   log r(t - 20)  [20,  ]  (2005年 7月10日〜              )

---------------------------------------------------------------------

軌道要素はM.P.E.C. 2004-W19に掲載されたものです。
星図は StellaNavigator Ver.2.0 for Windows (アストロアーツ 編著 / アスキー出版局刊) で作成したものです。
光度グラフはComet for Windowsで作成したものです。

---------------------------------------------------------------------

Copyright(C) Seiichi Yoshida (comet@aerith.net). All rights reserved.